Weather Service Report


982 
ASUS44 KLUB 180810
RWRTX 
WEST TEXAS WEATHER ROUNDUP
NATIONAL WEATHER SERVICE LUBBOCK TX
300 AM CDT THU SEP 18 2014

NOTE: "FAIR" INDICATES FEW OR NO CLOUDS BELOW 12,000 FEET WITH NO
SIGNIFICANT WEATHER AND/OR OBSTRUCTIONS TO VISIBILITY.

TXZ004-006>008-010-012-014-016-OKZ002-180900-
TEXAS PANHANDLE/OKLAHOMA PANHANDLE
  
CITY           SKY/WX    TMP DP  RH WIND       PRES   REMARKS
AMARILLO       MOCLDY    66  64  93 W3        30.02F                  
BORGER         PTCLDY    70  61  73 SW9       29.99S                  
CANADIAN       CLOUDY    70  65  83 CALM      29.92F                  
DALHART        PTCLDY    58  55  90 SW7       30.05R                  
DUMAS          PTCLDY    63  61  93 SW9       30.02S                  
GUYMON         CLEAR     64  60  87 SW7       29.96S                  
HEREFORD       DRIZZLE   67  66  97 CALM      30.05S                  
PAMPA          PTCLDY    68  59  73 SW10      30.00S                  
PERRYTON       PTCLDY    68  62  80 SW13      29.96S                  
$$

TXZ026-029-035-045-048-180900-
SOUTHERN PANHANDLE/SOUTH PLAINS/ROLLING PLAINS
  
CITY           SKY/WX    TMP DP  RH WIND       PRES   REMARKS
CHILDRESS      CLOUDY    72  69  90 SW5       29.95S                  
SEMINOLE       CLOUDY    68  67  96 CALM      30.00F                  
LUBBOCK        CLOUDY    68  64  87 S12       29.99F                  
PLAINVIEW      LGT RAIN  67  65  93 E5        30.01F                  
SNYDER         CLOUDY    70  68  95 CALM      29.96F                  
$$

TXZ052-054-060>062-072-078-127-140-154-169-180900-
PERMIAN BASIN/CONCHO VALLEY/BIG COUNTRY/EDWARDS PLATEAU  
  
CITY           SKY/WX    TMP DP  RH WIND       PRES   REMARKS
ABILENE        CLOUDY    73  68  84 SW3       29.93S                  
BIG SPRING     CLOUDY    74  71  89 S8        29.97F                  
BRADY          CLOUDY    72  72 100 E8        29.93F                  
BROWNWOOD      CLOUDY    73  72  94 SE6       29.93R                  
JUNCTION       CLOUDY    75  71  87 E5        29.92S                  
MIDLAND        CLOUDY    71  69  93 SE12      29.95F                  
ODESSA         CLOUDY    71  67  87 SE12      29.97F                  
SAN ANGELO     PTCLDY    73  68  84 NE3       29.93F                  
SONORA         MOCLDY    73  72  94 N3        29.98S                  
SWEETWATER     CLOUDY    72  72 100 SE8       29.97S                  
WINK           CLOUDY    73  67  81 E13       29.94S                  
$$

TXZ055-058-074-075-080-082-180900-
FAR WEST/SOUTHWEST MOUNTAINS/TRANS PECOS
  
CITY           SKY/WX    TMP DP  RH WIND       PRES   REMARKS
ALPINE         CLOUDY    68  61  79 CALM      30.07F                  
DRYDEN           N/A     78  70  76 N7        29.89S                  
EL PASO        CLOUDY    67  64  90 N15       29.99F                  
FORT STOCKTON  CLOUDY    73  67  81 SE9       29.95S                  
GUADALUPE PASS HVY RAIN  61  61 100 W16         N/A  VSB 1/2          
MARFA          CLOUDY    64  61  88 CALM      30.07S                  
PECOS          CLOUDY    74  65  73 NE9       29.92S                  
PRESIDIO       FAIR      79  64  61 N10       29.91R                  
$$

TXZ014-016-019-021>030-083-180900
TEXAS TECH WEST TEXAS MESONET/TEXAS PANHANDLE/NORTHERN SOUTH PLAINS
  
CITY           SKY/WX    TMP DP  RH WIND       PRES   REMARKS
ABERNATHY 5ENE   N/A     65  63  91 S2        30.01S                  
AMARILLO 9NNE    N/A     62  60  96 S2        30.01S                  
AMARILLO 7SSE    N/A     66  65  96 SW3       30.04R                  
AMHERST 1NE    LGT RAIN  64  63  97 S8        30.02S                  
BOOTLEG 11WNW    N/A     63  62  96 SE7       30.09S                  
CANADIAN 6E      N/A     69  63  80 W7        29.91F                  
CAPROCK CYN SP   N/A     70  65  86 SW6       30.00R                  
CHILDRESS 2NNE   N/A     72  68  87 SW5       29.94R                  
CLARENDON 2WSW   N/A     68  64  89 SW3       29.99R                  
CLAUDE 12SW      N/A     67  64  90 SE3       30.02R                  
DIMMITT 2NE      N/A     65  63  94 NE3       30.04F                  
FLOYDADA 2NNE    N/A     67  64  91 CALM      30.01R                  
FRIONA 2NE       N/A     65  63  93 SE2       30.06F                  
GOODLETT 3W      N/A     72  67  84 CALM      29.92S                  
HART 3N          N/A     64  63  95 CALM      30.04S                  
HEREFORD 2NW     N/A     65  63  92 S2        30.05S                  
MCLEAN 1E        N/A     69  63  81 SW1       29.98R                  
MEMPHIS 1NE      N/A     72  67  86 CALM      29.94S                  
MULESHOE 2SSW    N/A     64  63  95 NW6       30.03S                  
OLTON 6S         N/A     64  62  93 N7        30.02R                  
PALO DURO SP     N/A     70  61  74 S5        30.02R                  
PAMPA 2E         N/A     66  61  85 SW5       29.99F                  
PLAINVIEW 1S     N/A     67  65  95 E6        30.01F                  
SILVERTON 7ESE   N/A     67  65  93 W7        30.02R                  
TULIA 2ENE       N/A     67  65  96 S6        30.02F                  
TURKEY 2WSW      N/A     71  68  90 NW5       29.97R                  
UMBARGER 3NNE    N/A     66  65  97 S12       30.04S                  
$$

TXZ033>036-039>041-045>048-180900
TEXAS TECH WEST TEXAS MESONET/SOUTH PLAINS  
  
CITY           SKY/WX    TMP DP  RH WIND       PRES   REMARKS
AIKEN 3WSW     LGT RAIN  65  64  96 N6        30.02F                  
ANDREWS 2NE      N/A     66  62  87 E6        29.98                   
ANTON 6SSW       N/A     66  64  93 S12       30.00S                  
BROWNFIELD 2S    N/A     65  63  93 SE8       29.99F                  
DENVR CTY 7WNW   N/A     65  63  93 SE8       30.01F                  
GAIL 2ESE        N/A     69  67  93 SW2       29.96S                  
LAMESA 2SE       N/A     68  66  94 SE5       29.98F                  
LEVELLAND 4S     N/A     65  63  91 S7        30.00F                  
LUBBOCK 3WNW     N/A     66  63  89 SE12      29.99F                  
MORTON 1ENE      N/A     65  63  95 S6        30.02S                  
ODONNELL 1N      N/A     66  64  93 S6        29.98F                  
PLAINS 3N        N/A     65  64  94 SE8       30.02F                  
RALLS 1SE        N/A     66  65  94 S6        29.99F                  
REESE CENTER     N/A     65  63  93 S10       30.00S                  
SEAGRAVES 1SW    N/A     66  65  96 SE6       30.00F                  
SEMINOLE 2NNE    N/A     67  65  94 SE7       30.00S                  
SLATON 2NE       N/A     67  65  93 S7        29.99S                  
SNYDER 3E        N/A     68  67  97 S2        29.95F                  
SUNDOWN 8SW      N/A     65  64  94 SE8       30.01F                  
TAHOKA 3NNE      N/A     66  64  94 S6        29.98F                  
WOLFFORTH 6SSW   N/A     66  66  97 S6        30.00F                  
$$

TXZ031-032-036>038-042>044-180900-
TEXAS TECH WEST TEXAS MESONET/ROLLING PLAINS 
  
CITY           SKY/WX    TMP DP  RH WIND       PRES   REMARKS
ASPERMONT 3NE    N/A     72  69  93 W2        29.91S                  
FLUVANNA 3WNW    N/A     68  65  92 S6        29.96F                  
GRAHAM 5SSW      N/A     67  65  91 S3        29.97F                  
GUTHRIE 10WSW    N/A     70  67  91 W5        29.95R                  
HASKELL 1NW      N/A     72  68  87 E3        29.92S                  
JAYTON 1SSE      N/A     69  67  93 SW5       29.93S                  
KNOX CITY 3NW    N/A     72  68  85 NE3       29.93R                  
LK A HENRY 1NW   N/A     69  68  94 W2        29.94F                  
NORTHFIELD 1S    N/A     71  69  95 E5        29.95S                  
ODELL 4ENE       N/A     73  68  86 SE5       29.93R                  
PADUCAH 10SW     N/A     70  67  90 CALM      29.95R                  
POST 1NE         N/A     69  68  98 S6        29.95F                  
RRING SPRGS 3N   N/A     68  66  93 SW6       29.98R                  
SEYMOUR 3NW      N/A     74  68  83 N1        29.92R                  
SPUR 1W        LGT RAIN  69  67  93 N5        29.95S                  
WEINERT 2NNE     N/A     72  70  93 E1        29.93R                  
WHITE RVR 6NE    N/A     67  65  93 SW3       29.97S                  
$$

TXZ052-054-060>062-072-078-127-140-154-169-180900-
TEXAS TECH WEST TEXAS MESONET/PERMIAN BASIN/
CONCHO VALLEY/BIG COUNTRY/EDWARDS PLATEAU
  
CITY           SKY/WX    TMP DP  RH WIND       PRES   REMARKS
COYANOSA 2N      N/A     75  66  75 E7        29.93S                  
JUNCTION 1SSW    N/A     74  72  92 CALM      29.93S                  
MERTZON 3NNE     N/A     71  68  90 NW1       29.96S                  
SAN ANGELO 7NW   N/A     72  66  82 SE2       29.94S                  
STRLNG CT 4WSW   N/A     72  67  83 N1        29.96F                  
ST LAWRNCE 5SW   N/A     70  68  94 E6        29.97S                  
SWEETWATR 11SW   N/A     71  69  92 SE8       29.95F                  
WALL 1E          N/A     69  65  88 N1        29.94S                  
$$

TXZ055-058-074-075-080-082-180900-
TEXAS TECH WEST TEXAS MESONET/FAR WEST/SOUTHWEST MOUNTAINS/TRANS PECOS
  
CITY           SKY/WX    TMP DP  RH WIND       PRES   REMARKS
PRSMN GAP BBNP   N/A     75  68  79 N10       29.92S                  
$$

Return to Home page


Western Regional Climate Center, wrcc@dri.edu